Погода в Вильнюсе

Поиск расширенной информации на нашем сайте:

Полезная информация:

Новости сайта



02.01.2020
Опубликован Долгосрочный прогноз погоды по городам России и ближнего зарубежья на январь 2020 года.
Карты: Прогноз на январь и февраль 2020 года, Сравнение прогнозируемой аномалии приземной температуры воздуха на январь 2020 года по разным моделям.




Погода в Вильнюсе - сегодня

Время (UTC), дата Ветер
(°,м/с) 
Видим.   Явления Облачность Т
(°С)
Тd
(°С)
f(%) Тe
(°С)
Pmin
(гПа)
dP
(гПа)
Po
(мм)
O2
(г/м3)
Тmin Tmax R s Состояние
почвы
12 16.04.21 040 (СВ) 4-7{09}  20000 м  {дождь}  5/5 1000 м 
[Sc]
+10.1 +4 66 +9  1015.6  0.5  748  290      0.0     
15 16.04.21 110 (В) 3-6{08}  20000 м    4/4 1260 м 
[Cu med, cong]
+13.5 +5.4 58 +14  1014.8  -0.5  747  286           
18 16.04.21 100 (В) 1-3{10}  12000 м  слаб. дождь  10/10 2000 м 
[Ns]
+10.1 +8.3 89 +11  1016.6  1.5  748  289    +14.1  0.3     
21 16.04.21 050 (СВ) 2-4{07}  20000 м  {дождь}  1/1 1000 м 
[Sc]
+8.8 +7 88 +9  1018  1.2  749  291           
00 17.04.21 220 (ЮЗ) 1-2{04}  20000 м  {дождь}  10/0 средняя 
[Ac und]
+7.5 +6.6 94 +8  1018.1  0.1  749  293      0.0     
03 17.04.21 250 (З) 1-1{06}  11000 м  слаб. дождь  10/10 2000 м 
[Ns]
+7.3 +6.5 95 +8  1018.3  0.2  749  293           
06 17.04.21 080 (В) 2-4{05}  14000 м  {дождь}  9/9 180 м 
[St]
+8.8 +7.4 91 +9  1019.5  1.3  750  292  +7    0.9    влажная 
09 17.04.21 130 (ЮВ) 2-4{06}  20000 м    6/6 660 м 
[Cu hum]
+13 +7.9 71 +13  1019.3  750  287           
12 17.04.21 050 (СВ) 4-7{07}  20000 м    4/3 1500 м средняя 
[Cu med, cong|Ac trans]
+16.1 +5.3 49 +16  1018.5  -0.6  750  285           
15 17.04.21 100 (В) 5-8{10}  20000 м  {дождь}  8/5 1500 м средняя 
[Cu Sc|Ac As]
+14.9 +6.6 58 +14  1019.1  0.5  750  286           
18 17.04.21 060 (СВ) 1-2{08}  20000 м  {ливн. осадки, дождь}  8/6 1500 м средняя 
[Cu Sc|Ac As]
+10.3 +7.7 84 +11  1020.3  0.9  751  290    +16.6     
21 17.04.21 270 (З) 1-1{03}  5000 м  дымка  9/0 средняя 
[Ac As]
+8.3 +7.5 95 +9  1020.9  0.4  751  293           
00 18.04.21 320 (СЗ) 1-2{03}  6000 м  дымка  ясно 
+6.9 +6.5 97 +8  1020.6  -0.3  751  294           
03 18.04.21 320 (СЗ) 2-3{04}  16000 м    ясно 
+6 +5.1 94 +6  1020.2  -0.4  751  295           
06 18.04.21 040 (СВ) 2-4{05}  20000 м    3/0 средняя 
[Ac trans]
+9 +4.2 72 +9  1020.3  0.2  751  292  +5.5        влажная 
09 18.04.21 110 (В) 3-5{05}  20000 м    ясно <0100 м 
+14.8 +3 45 +15  1019.5  -0.4  751  286           
12 18.04.21 050 (СВ) 3-7{09}  20000 м    ясно 
+18.5 +0.8 30 +19  1018.7  -0.6  750  283           
15 18.04.21 060 (СВ) 3-6{08}  20000 м    3/0 средняя 
[Ac trans]
+19.3 -0.8 26 +20  1018.4  -0.2  750  282           
18 18.04.21 040 (СВ) 2-3{08}  20000 м    ясно 
+15.4 -2.6 29 +16  1019.6  751  287    +20.1       
21 18.04.21 110 (В) 1-3{04}  20000 м    ясно <0100 м 
+10.9 -3.4 36 +12  1020.4  0.5  751  291           
00 19.04.21 030 (СВ) 2-3{03}  20000 м    ясно 
+7.3 -3 48 +7  1020.6  0.1  751  295           
03 19.04.21 020 (С) 1-1{03}  20000 м    ясно 
+3.6 -2.5 64 +4  1020.7  0.1  751  299           
06 19.04.21 120 (ЮВ) 1-3{03}  20000 м    ясно 
+9.3 -0.4 51 +10  1020.6  0.2  751  293  +3.4        влажная 
09 19.04.21 080 (В) 4-7{08}  20000 м    ясно <0100 м 
+15.5 -1.3 32 +15  1019.7  -0.4  751  286           
12 19.04.21 070 (В) 3-7{09}  20000 м    6/6 1500 м 
[Cu med, cong]
+15.3 -0.8 33 +16  1019.3  -0.4  751  286           
Время (UTC), дата Ветер
(°,м/с) 
Видим.   Явления Облачность Т
(°С)
Тd
(°С)
f(%) Тe
(°С)
Pmin
(гПа)
dP
(гПа)
Po
(мм)
O2
(г/м3)
Тmin Tmax R s Состояние
почвы

Для получения пояснительной информации подведите курсор к названию столбца.

ПОГОДА в Вильнюсе - архив

Всё, что Вы хотите узнать о погоде в Вильнюсе - удобно и подробно!

Выберите нужную дату (начиная с 1 января 2019* года) и нажмите кнопку "Найти".
Будут отображены архивные сводки погоды по пункту Вильнюс, начиная с указанной даты.


Отображать данные в формате CSV (для использования в таблицах Excel)


Внимание! Наш архив погоды предназначен исключительно для личного некоммерческого использования в познавательных целях. Если Вам необходимы официальные справки о состоянии погоды (для производственных, юридических, коммерческих и т.п. целей), обращайтесь в органы Росгидромета.

*Примечание: данная дата относится к архиву по метеостанциям СССР (Россия, СНГ, Балтия).
Архив по метеостанциям Зарубежной Европы и Азии (кроме Китая) хранится 10 дней, по другим регионам земного шара (Китай, Африка, Америка, Австралия, Океания) - 1 день.

Вильнюс - район местоположения метеостанции


Название, широта, долгота, высота метеостанции:
Вильнюс 54.6°ш. 25.1°д. 156 м над ур. моря [Литва]

Дополнительная информация

В oтличие oт бoльшинства пoгoдных сайтoв мы публикуем пoдрoбную метеoинфoрмацию в детальнoм прoфессиoнальнoм фoрмате.

Характеристики температуры и влажнoсти вoздуха измеряются на высoте 2 м в тени вдали oт зданий и деревьев.
Скoрoсть ветра измеряется на высoте 10 м (на урoвне рoста челoвека скoрoсть ветра ниже в 1.5-2 раза). Если метеoстанция нахoдится в гoрoде или в лесу, тo скoрoсть ветра занижена на 2-4 м/с пo сравнению с oткрытым местoм. Скoрoсть ветра над акватoриями крупных рек и oзёр, а также на вершинах хoлмoв на 2-5 м/с выше, чем в oбычных услoвиях.
Атмoсфернoе давление в разных тoчках местнoсти мoжет значительнo oтличаться oт давления на метеoстанции, в зависимoсти oт услoвий рельефа (при пoдъёме на 10 м давление пoнижается примернo на 1 мм рт.ст.).